Location: Lombard
(41.8800°N, 88.0080°W)
Time: 11:59:00
(UTC-05:00)

A-11 Canister half - Pass Details

Date: 07 February 2023
Orbit: 1512 x 1687 km, 47.2° (Epoch: 20 March)

Event Time Altitude Azimuth Distance (km) Brightness Sun altitude
Rises 06:41:06 0° 170° (S) 4,901 12.0 -3.8°
Reaches altitude 10° 06:47:04 10° 143° (SE) 3,888 12.1 -2.8°
Maximum altitude 06:50:30 12° 122° (ESE) 3,688 12.7 -2.2°
Drops below altitude 10° 06:53:54 10° 101° (E) 3,850 13.1 -1.6°
Sets 06:59:40 0° 75° (ENE) 4,798 12.6 -0.6°
